Regional Weather Roundup
Issued by NWS

Home | Current Version | Previous Version | Text Only | Print | Product List | Glossary On
Versions: 1 2 3 4 5 6 7 8 9 10 11 12 13 14 15 16 17 18 19 20 21 22 23 24 25 26 27 28 29 30 31 32 33 34 35 36 37 38 39 40 41 42 43 44 45 46 47 48 49 50
000
ASUS46 KSEW 092020
RWRWA

WASHINGTON REGIONAL WEATHER ROUNDUP
NATIONAL WEATHER SERVICE SEATTLE WA
100 PM PDT SUN MAY 09 2021

NOTE:"FAIR" INDICATES FEW OR NO CLOUDS BELOW 12,000 FEET WITH NO
SIGNIFICANT WEATHER AND/OR OBSTRUCTIONS TO VISIBILITY.

WAZ507-509-555>559-092100-
SEATTLE, TACOMA, EVERETT, AND VICINITY

CITY           SKY/WX    TMP DP  RH WIND       PRES   REMARKS
EVERETT        PTSUNNY   54  44  69 W7        30.28F
BOEING FIELD   PTSUNNY   58  43  57 W6        30.27F
RENTON         CLOUDY    57  45  64 NW6       30.27F
SEATAC AIRPORT PTSUNNY   58  46  64 W5        30.27F
JBLM-MCCHORD   NOT AVBL
PUYALLUP       PTSUNNY   57  48  72 CALM      30.26F
BREMERTON      PTSUNNY   58  44  60 VRB3      30.27F
JBLM-FT LEWIS  NOT AVBL
TACOMA NARROWS LGT RAIN  55  46  71 N5        30.28S
$$

WAZ001-503-506-510-514-515-092100-
NORTH INTERIOR

CITY           SKY/WX    TMP DP  RH WIND       PRES   REMARKS
BELLINGHAM     PTSUNNY   57  42  57 NW8       30.28F
FRIDAY HARBOR  CLOUDY    55  47  74 VRB7      30.30F
EASTSOUND      CLOUDY    54  46  76 VRB6      30.29S
PORT ANGELES   CLOUDY    53  43  68 VRB3      30.30F
EDIZ HOOK      FAIR      53  46  78 CALM      30.31S
PORT TOWNSEND  FAIR      57  46  67 VRB7      30.28F
NAS WHIDBEY    PTSUNNY   55  46  71 W9        30.33F
ARLINGTON        N/A     59  46  62 W10       30.28S
BURLINGTON     SUNNY     61  45  55 NW12      30.28F
$$

WAZ020-022-039-040-504-511-512-092100-
SOUTHWEST INTERIOR

CITY           SKY/WX    TMP DP  RH WIND       PRES   REMARKS
SHELTON        PTSUNNY   59  44  57 NE3       30.24F
OLYMPIA        CLOUDY    58  45  62 SW6       30.27F
CHEHALIS       CLOUDY    59  48  67 NE6       30.27F
KELSO          MOSUNNY   60  46  59 VRB6      30.27F
VANCOUVER      CLOUDY    60  43  53 W9        30.25F
SCAPPOOSE, OR  CLOUDY    60  47  61 CALM      30.25F
PORTLAND, OR   PTSUNNY   61  42  49 W7        30.26F
$$

WAZ021-516-517-092100-
WASHINGTON COAST

CITY           SKY/WX    TMP DP  RH WIND       PRES   REMARKS
FORKS          CLOUDY    56  46  69 NW5       30.29F
HOQUIAM        CLOUDY    54  49  83 W13       30.29S
ASTORIA, OR    CLOUDY    54  48  80 NW6       30.28F
$$

WAZ019-023-024-040-567>569-092100-
CASCADE MOUNTAINS AND COLUMBIA GORGE

CITY           SKY/WX    TMP DP  RH WIND       PRES   REMARKS
STAMPEDE PASS  CLOUDY    42  36  79 VRB6      30.19F
TROUTDALE, OR  CLOUDY    59  44  57 CALM      30.26F
HOOD RIVER, OR CLEAR     63  41  45 W8G20     30.19F
THE DALLES, OR PTSUNNY   69  41  36 NW17      30.16F
$$

WAZ026-027-041>044-520-521-092100-
EAST SLOPES

CITY           SKY/WX    TMP DP  RH WIND       PRES   REMARKS
OMAK           MOSUNNY   68  25  19 N17       30.12F
WENATCHEE      SUNNY     64  26  23 S10       30.12F
ELLENSBURG     SUNNY     63  29  27 W8        30.14F
YAKIMA         MOSUNNY   64  29  26 CALM      30.14F
SUNNYSIDE ARPT CLEAR     64  33  32 N3        30.15F
YAKIMA TC      NOT AVBL
$$

WAZ028-034-035-092100-
COLUMBIA BASIN

CITY           SKY/WX    TMP DP  RH WIND       PRES   REMARKS
EPHRATA        MOSUNNY   64  23  21 N6        30.12F
MOSES LAKE     MOSUNNY   66  26  22 W7        30.13F
PASCO          MOSUNNY   64  29  26 VRB3      30.16F
RICHLAND ARPT  CLEAR     67  31  26 CALM      30.16F
HERMISTON, OR  MOSUNNY   63  36  36 W7        30.17F
$$

WAZ036>038-092100-
NORTHEAST WASHINGTON

CITY           SKY/WX    TMP DP  RH WIND       PRES   REMARKS
SPOKANE GEIGER PTSUNNY   56  25  30 CALM      30.13F
SPOKANE FELTS  PTSUNNY   61  27  27 SE8       30.13F
FAIRCHILD AFB  NOT AVBL
COEURDALENE,ID PTSUNNY   54  33  45 S8        30.13F
DEER PARK      MOSUNNY   58  26  29 NW5       30.12F
$$

WAZ029>033-092100-
SOUTHEAST WASHINGTON

CITY           SKY/WX    TMP DP  RH WIND       PRES   REMARKS
PULLMAN        PTSUNNY   54  33  45 NW8       30.16F
LEWISTON, ID   MOSUNNY   63  31  30 VRB7      30.14F
WALLA WALLA    MOSUNNY   59  35  40 SW10      30.15F
PENDLETON, OR  MOSUNNY   59  34  39 W12G18    30.16F
$$



USA.gov is the U.S. government's official web portal to all federal, state and local government web resources and services.